Flag for United Kingdom Weather past 2 weeks in Poole, England, United Kingdom

Now
36 °F

Passing clouds.


Feels Like: 31 °F
Forecast: N/A
Wind: 6 mph from Northwest

Location: Bournemouth Airport

Current Time: Dec 27, 2014 at 6:52:15 PM

Latest Report: Dec 27, 2014 at 6:20 PM


Visibility: N/A

Pressure: 29.83 "Hg

Humidity: 93%

Dew point: 34 °F

Location of PooleLocation

Historic Weather in Poole — Graph

°F

Poole temperature yesterday

Maximum temperature yesterday: 52 °F (at 7:20 PM)
Minimum temperature yesterday: 27 °F (at 5:20 AM)
Average temperature yesterday: 41 °F

Past Weeks' High & Low Weather Summary

 TemperatureHumidityPressure
High55 °F (Dec 17, 12:50 PM)100% (Dec 12, 10:20 PM)30.51 "Hg (Dec 12, 10:20 PM)
Low25 °F (Dec 13, 9:50 PM)62% (Dec 24, 1:20 PM)29.56 "Hg (Dec 12, 5:20 PM)
Average46 °F87%30.02 "Hg
* Reported Dec 12 5:20 PM — Dec 27 5:50 PM, Poole, Weather by CustomWeather, © 2014

Note: Actual official high and low records may vary slightly from our data, if they occured in-between our weather recording intervals... More about our weather records

Advertising

Poole weather history for previous 24 hours

 ConditionsComfort  
Time TempWeatherWind HumidityBarometerVisibility
5:50 PM
Dec 27
36 °FPassing clouds.6 mph93%29.83 "HgN/A
5:20 PM37 °FPassing clouds.8 mph93%29.80 "HgN/A
4:20 PM36 °FPassing clouds.6 mph93%29.80 "HgN/A
3:50 PM39 °FPartly sunny.12 mph81%29.80 "HgN/A
3:20 PM43 °FScattered showers. Broken clouds.13 mph76%29.80 "HgN/A
2:50 PM43 °FScattered clouds.10 mph76%29.80 "HgN/A
2:20 PM43 °FScattered clouds.16 mph71%29.80 "HgN/A
1:50 PM45 °FScattered clouds.15 mph71%29.80 "HgN/A
1:20 PM45 °FScattered clouds.16 mph71%29.80 "HgN/A
12:50 PM45 °FPassing clouds.13 mph76%29.83 "HgN/A
12:20 PM43 °FPassing clouds.15 mph76%29.83 "HgN/A
11:50 AM45 °FSunny.13 mph76%29.83 "Hg10 mi
11:20 AM43 °FSunny.15 mph76%29.83 "Hg10 mi
10:50 AM43 °FSunny.13 mph76%29.83 "Hg10 mi
10:20 AM41 °FSunny.14 mph81%29.86 "Hg10 mi
9:50 AM39 °FSunny.15 mph81%29.86 "Hg10 mi
9:20 AM37 °FSunny.14 mph87%29.86 "Hg10 mi
8:50 AM37 °FSunny.12 mph81%29.83 "Hg10 mi
8:20 AM37 °FSunny.13 mph81%29.83 "Hg10 mi
7:50 AM37 °FClear.16 mph81%29.83 "Hg10 mi
7:20 AM37 °FClear.21 mph81%29.83 "Hg10 mi
6:50 AM39 °FClear.22 mph75%29.80 "Hg10 mi
6:20 AM37 °FClear.21 mph81%29.80 "HgN/A
5:50 AM37 °FPassing clouds.23 mph81%29.80 "HgN/A
5:20 AM37 °FPassing clouds.21 mph81%29.80 "HgN/A
3:50 AM39 °FPassing clouds.23 mph75%29.77 "HgN/A
2:50 AM39 °FPassing clouds.22 mph75%29.74 "HgN/A
2:20 AM39 °FPassing clouds.24 mph75%29.71 "HgN/A
1:50 AM39 °FPassing clouds.21 mph75%29.71 "HgN/A
1:20 AM39 °FPassing clouds.23 mph75%29.71 "HgN/A
12:50 AM45 °FPassing clouds.23 mph87%29.65 "HgN/A
12:20 AM46 °FPassing clouds.23 mph82%29.65 "HgN/A
11:50 PM
Dec 26
46 °FPassing clouds.29 mph82%29.65 "HgN/A
11:20 PM48 °FPassing clouds.24 mph82%29.65 "HgN/A
10:50 PM50 °FPartly cloudy.22 mph88%29.65 "HgN/A
10:20 PM50 °FPassing clouds.18 mph88%29.65 "HgN/A
9:50 PM50 °FPassing clouds.17 mph94%29.68 "HgN/A
9:20 PM50 °FPartly cloudy.21 mph94%29.71 "HgN/A
8:50 PM50 °FPartly cloudy.22 mph94%29.71 "HgN/A
8:20 PM52 °FPassing clouds.20 mph88%29.74 "HgN/A
7:50 PM52 °FPassing clouds.16 mph88%29.77 "HgN/A
7:20 PM52 °FPassing clouds.16 mph94%29.80 "HgN/A
6:50 PM50 °FPassing clouds.16 mph100%29.83 "HgN/A
6:20 PM50 °FRain. Passing clouds.17 mph100%29.86 "Hg5 mi
Weather by CustomWeather, © 2014

See weather overviewHow to use our weather pages